Regional Weather Roundup
Issued by NWS

Home | Current Version | Previous Version | Text Only | Print | Product List | Glossary Off
Versions: 1 2 3 4 5 6 7 8 9 10 11 12 13 14 15 16 17 18 19 20 21 22 23 24 25 26 27 28 29 30 31 32 33 34 35 36 37 38 39 40 41 42 43 44 45 46 47 48 49 50

010
ASUS45 KSLC 101510
RWRUT

UTAH REGIONAL WEATHER ROUNDUP
NATIONAL WEATHER SERVICE SALT LAKE CITY UT
800 AM MST WED FEB 10 2016

UTZ001>011-023>025-101600-

NORTHERN UTAH

CITY           SKY/WX    TMP DP  RH WIND       PRES   REMARKS
BRIGHAM CITY   CLOUDY    21  19  91 N5        30.51R VSB 1/2 WCI  15
HILL AFB       NOT AVBL
LOGAN          SNOW       6   6 100 NE3       30.49R VSB 1/4
OGDEN          CLOUDY    25  22  88 CALM      30.47R
PROVO AIRPORT  FOG      N/A N/A N/A CALM      30.48R VSB 1/4
SALT LAKE CITY SNOW      28  27  96 SE6       30.46F VSB 1/4 WCI  22
VERNAL         CLOUDY     7   4  87 NW3       30.49R FOG
WENDOVER       CLOUDY    28  25  86 S3        30.48R
HEBER CITY     FOG        3   0  85 CALM      30.44S VSB 1/4
WEST JORDAN    CLOUDY    27  27 100 S5        30.47F VSB 1/4 WCI  21

$$

UTZ012>022-026-027-101600-

SOUTHERN/CENTRAL UTAH

CITY           SKY/WX    TMP DP  RH WIND       PRES   REMARKS
BLANDING       PTCLDY    26  16  64 N3        30.52R
BRYCE CANYON   PTCLDY    12   1  61 W5        30.48R WCI   4
CEDAR CITY     PTCLDY    16  12  84 CALM      30.42S
DELTA          CLOUDY     6   3  90 S3        30.48R
HANKSVILLE     CLOUDY    19  19 100 CALM      30.51R
MILFORD        FOG        5   1  83 S7        30.46R VSB<1/4 WCI  -7
MOAB/CYNLANDS  MOCLDY    20  18  92 CALM      30.47R
PRICE          PTCLDY    21  14  74 N5        30.44R WCI  15
ST GEORGE      MOSUNNY   37  23  56 CALM      30.44R
KANAB          CLEAR     34  23  64 N8        30.47R WCI  27

$$

REGIONAL REPORTS     COLORADO/ARIZONA

CITY           SKY/WX    TMP DP  RH WIND       PRES   REMARKS
CRAIG, CO      FOG       -3  -7  82 W5        30.43F VSB 1/4 WCI -13
GRAND JUNCTION CLOUDY    18  16  92 CALM      30.46S
RIFLE          CLOUDY    13   8  81 SE3       30.50R
MONTROSE       CLOUDY    18  11  74 SE8       30.50R WCI   8
CORTEZ         CLOUDY    19  14  81 NE6       30.47R WCI  11
PAGE, AZ       PTCLDY    32  26  78 CALM      30.46R
GRAND CANYON   PTCLDY    25  17  72 NE5       30.46R WCI  19
KINGMAN        PTCLDY    39  22  50 NE5       30.32R
FLAGSTAFF      PTCLDY    22  15  75 CALM      30.46R

$$

REGIONAL REPORTS    NEVADA/IDAHO/WYOMING

CITY           SKY/WX    TMP DP  RH WIND       PRES   REMARKS
LAS VEGAS, NV  PTCLDY    49  27  42 S5        30.29R
ELY            MOCLDY    11   3  70 S20       30.43S WCI  -7
ELKO           FOG        7   5  91 E5        30.47R VSB 1   WCI  -2
POCATELLO, ID  CLOUDY    12   9  87 CALM      30.42S FOG
BURLEY         PTCLDY    24  22  91 CALM      30.37R
EVANSTON, WY   CLOUDY    24  12  60 S9        30.39S WCI  14
ROCK SPRINGS   CLOUDY    23  13  65 W12       30.35S WCI  12

$$




USA.gov is the U.S. government's official web portal to all federal, state and local government web resources and services.